Regional Weather Roundup
Issued by NWS

Home | Current Version | Previous Version | Graphics & Text | Print | Product List | Glossary On
Versions: 1 2 3 4 5 6 7 8 9 10 11 12 13 14 15 16 17 18 19 20 21 22 23 24 25 26 27 28 29 30 31 32 33 34 35 36 37 38 39 40 41 42 43 44 45 46 47 48 49 50
000
ASUS43 KLOT 300002
RWRIL

ILLINOIS REGIONAL WEATHER ROUNDUP
NATIONAL WEATHER SERVICE CHICAGO/ROMEOVILLE IL
700 PM CDT SUN MAR 29 2015

NOTE: "FAIR" INDICATES FEW OR NO CLOUDS BELOW 12,000 FEET WITH NO
SIGNIFICANT WEATHER AND/OR OBSTRUCTIONS TO VISIBILITY.

* THESE STATIONS ARE NOT UNDER NWS QUALITY CONTROL. THEY ALSO MAY NOT
  REPORT WEATHER SUCH AS PRECIPITATION OR FOG.

ILZ001-002-007-009-015-016-024-300100-
NORTHWEST ILLINOIS

CITY           SKY/WX    TMP DP  RH WIND       PRES   REMARKS
MOLINE         CLEAR     54  36  50 NW20G30   29.87R
6HR MIN TEMP:  43; 6HR MAX TEMP:  58;

STERLING*      PTCLDY    52  39  62 NW18G31   29.85R
$$

ILZ003-004-008-010-011-017-018-300100-
NORTH CENTRAL ILLINOIS

CITY           SKY/WX    TMP DP  RH WIND       PRES   REMARKS
ROCKFORD       CLOUDY    46  35  65 NW22G32   29.84R
6HR MIN TEMP:  34; 6HR MAX TEMP:  50; 6HR PCP: TRACE;

$$

ILZ005-006-012>014-019>023-300100-
NORTHEAST ILLINOIS

CITY           SKY/WX    TMP DP  RH WIND       PRES   REMARKS
CHICAGO-OHARE  LGT RAIN  47  35  63 SW14G24   29.75R
6HR MIN TEMP:  34; 6HR MAX TEMP:  47; 6HR PCP: TRACE;

CHICAGO-MIDWAY CLOUDY    49  35  58 SW17G29   29.76F
6HR MIN TEMP:  36; 6HR MAX TEMP:  49; 6HR PCP:  0.01;

AURORA         CLOUDY    48  35  60 W16G25    29.78R
6HR MIN TEMP:  35; 6HR MAX TEMP:  48;

WAUKEGAN       CLOUDY    44  38  79 W12G23    29.75R
6HR MIN TEMP:  34; 6HR MAX TEMP:  45; 6HR PCP: TRACE;

DUPAGE AIRPORT LGT RAIN  47  35  63 SW17      29.77R
6HR MIN TEMP:  34; 6HR MAX TEMP:  47; 6HR PCP: TRACE;

WHEELING       CLOUDY    46  35  65 SW14G26   29.77R
6HR MIN TEMP:  34; 6HR MAX TEMP:  47; 6HR PCP: TRACE;

NORTHERLY ISL    N/A     48  33  56 SW9         N/A
$$

LMZ740>746-300100-
SOUTHERN LAKE MICHIGAN

STATION/POSITION SKY/WX   TEMP    WIND        PRES    VSBY  WAVE
                          AIR SEA DIR/SP/G                  HT/PER
                          (F)     (DEG/KT/KT) (MB)    (MI)  (FT/S)
HARRISON CRIB              46     210/ 28/ 38   N/A
BURNHAM HARBOR             47     220/  8/ 19   N/A
CALUMET HARBOR             47     200/ 15/ 22 1006.9F
BURNS HARBOR               45     210/ 20     1009.1F
MICHIGAN CITY              43     180/ 19/ 23   N/A
$$

ILZ025>027-034>036-040-047-049-050-058-095>099-300100-
WEST-CENTRAL ILLINOIS

CITY           SKY/WX    TMP DP  RH WIND       PRES   REMARKS
QUINCY         CLOUDY    58  41  53 W9        29.93R
$$

ILZ028>032-037-038-041>044-048-051>054-059>061-300100-
CENTRAL ILLINOIS

CITY           SKY/WX    TMP DP  RH WIND       PRES   REMARKS
DECATUR        MOCLDY    51  41  68 SW13      29.92R
PEORIA         CLOUDY    56  40  55 W14       29.87R
6HR MIN TEMP:  41; 6HR MAX TEMP:  58;

SPRINGFIELD    CLOUDY    55  40  56 SW13      29.92R
6HR MIN TEMP:  46; 6HR MAX TEMP:  58; 6HR PCP: TRACE;

TAYLORVILLE    NOT AVBL
$$

ILZ033-039-045-046-055>057-062-063-300100-
EAST-CENTRAL ILLINOIS

CITY           SKY/WX    TMP DP  RH WIND       PRES   REMARKS
CHAMPAIGN      MOCLDY    48  40  73 SW13      29.91R
MATTOON        MOCLDY    49  41  74 SW10      29.93R
$$

ILZ079-100>102-300100-
SOUTHWEST ILLINOIS

CITY           SKY/WX    TMP DP  RH WIND       PRES   REMARKS
BELLEVILLE     CLOUDY    55  46  73 VRB2      29.96R
CAHOKIA*       CLOUDY    57  43  59 W10       29.98R
$$

ILZ064>066-069>071-074>076-080>082-084>086-088>090-092>094-300100-
SOUTH-CENTRAL ILLINOIS

CITY           SKY/WX    TMP DP  RH WIND       PRES   REMARKS
CARBONDALE     CLOUDY    54  42  64 S12       29.97S
6HR MIN TEMP:  53; 6HR MAX TEMP:  59;

MT. VERNON     CLOUDY    52  39  62 SW16      29.99R
$$

ILZ067-068-072-073-078-083-087-091-300100-
SOUTHEAST ILLINOIS

CITY           SKY/WX    TMP DP  RH WIND       PRES   REMARKS
LAWRENCEVILLE  LGT RAIN  51  43  74 SW10      29.94F
$$

ABBREVIATIONS USED IN REMARKS
   TC - TEMPERATURE IN CELSIUS
  WCI - WIND CHILL INDEX
   HX - HEAT INDEX
  VSB - VISIBILITY
$$




USA.gov is the U.S. government's official web portal to all federal, state and local government web resources and services.